Flag for U.S.A. Weather past 2 weeks in New Orleans, Louisiana, U.S.A.

Now
79 °F

Scattered clouds.


Feels Like: 83 °F
Forecast: 74 / 86 °F
Wind: 8 mph from East

Location: Lakefront Airport

Current Time: Jul 22, 2014 at 9:05:38 PM

Latest Report: Jul 22, 2014 at 7:53 PM


Visibility: 8 mi

Pressure: 29.99 "Hg

Humidity: 90%

Dew point: 76 °F

Location of New OrleansLocation

Historic Weather in New Orleans — Graph

°F

New Orleans temperature yesterday

Maximum temperature yesterday: 88 °F (at 2:53 PM)
Minimum temperature yesterday: 79 °F (at 12:53 AM)
Average temperature yesterday: 84 °F

Past Weeks' High & Low Weather Summary

 TemperatureHumidityPressure
High90 °F (Jul 13, 4:53 PM)97% (Jul 18, 5:00 PM)30.15 "Hg (Jul 18, 5:00 PM)
Low74 °F (Jul 18, 5:00 PM)46% (Jul 16, 6:53 PM)29.89 "Hg (Jul 15, 5:53 PM)
Average81 °F76%30.01 "Hg
* Reported Jul 7 7:53 PM — Jul 22 7:53 PM, New Orleans, Weather by CustomWeather, © 2014

Note: Actual official high and low records may vary slightly from our data, if they occured in-between our weather recording intervals... More about our weather records

Advertising

New Orleans weather history for previous 24 hours

 ConditionsComfort  
Time TempWeatherWind HumidityBarometerVisibility
7:53 PM
Jul 22
79 °FScattered clouds.8 mph90%29.99 "Hg8 mi
6:53 PM83 °FSunny.No wind72%30.00 "Hg10 mi
11:53 AM86 °FPassing clouds.7 mph70%30.04 "Hg9 mi
10:53 AM87 °FSunny.6 mph69%30.01 "Hg9 mi
9:53 AM86 °FScattered clouds.5 mph70%30.01 "Hg10 mi
8:53 AM83 °FPassing clouds.No wind79%30.01 "Hg9 mi
7:53 AM82 °FSunny.3 mph82%30.01 "Hg7 mi
6:53 AM79 °FPassing clouds.5 mph84%30.00 "Hg8 mi
5:53 AM78 °FPassing clouds.5 mph84%29.99 "Hg10 mi
4:53 AM80 °FClear.No wind79%29.98 "Hg10 mi
3:53 AM82 °FPartly cloudy.6 mph74%29.97 "Hg10 mi
2:53 AM81 °FMostly cloudy.6 mph88%29.97 "Hg8 mi
1:53 AM82 °FPartly cloudy.8 mph82%29.98 "Hg8 mi
12:53 AM81 °FPassing clouds.7 mph85%29.99 "Hg8 mi
11:53 PM
Jul 21
81 °FPassing clouds.9 mph79%29.99 "Hg10 mi
10:53 PM86 °FPassing clouds.5 mph61%29.98 "Hg10 mi
9:53 PM86 °FClear.6 mph61%29.98 "Hg10 mi
Weather by CustomWeather, © 2014

See weather overviewHow to use our weather pages